CW5439 Weather Reports


Display with metric or nautical units.
time (UTC)temp
F
wind
direction
speed
MPH
gust
MPH
rain 1hr
in
rain 24hr
in
rain mn
in
humidity
%
barometer
mb
20190218063205 42 227 14.0 24.0 0.00 0.00 0.00 85 1000.4
20190218062710 43 226 15.0 24.0 0.00 0.00 0.00 85 1000.4
20190218062206 43 219 15.0 26.0 0.00 0.00 0.00 85 1000.4
20190218061706 43 232 15.0 26.0 0.00 0.00 0.00 85 1000.2
20190218061206 43 221 15.0 26.0 0.00 0.00 0.00 86 1000.2
20190218060706 43 232 15.0 26.0 0.00 0.00 0.00 87 1000.4
20190218060230 43 221 16.0 26.0 0.00 0.00 0.00 87 1000.6
20190218055711 43 219 16.0 26.0 0.00 0.00 0.00 87 1000.6
20190218055206 43 227 16.0 26.0 0.00 0.00 0.00 87 1000.6
20190218054705 43 246 15.0 26.0 0.00 0.00 0.00 88 1000.6
20190218054205 43 233 15.0 30.0 0.00 0.00 0.00 88 1000.6
20190218053706 43 209 16.0 30.0 0.00 0.00 0.00 88 1000.7
20190218053213 43 232 18.0 30.0 0.00 0.00 0.00 88 1000.7
20190218052706 43 233 16.0 30.0 0.00 0.00 0.00 87 1000.8
20190218052207 44 246 16.0 26.0 0.00 0.00 0.00 87 1000.9
20190218051706 44 229 15.0 20.0 0.00 0.00 0.00 87 1000.8
20190218051206 44 217 12.0 23.0 0.00 0.00 0.00 87 1001.0
20190218050708 44 221 12.0 23.0 0.00 0.00 0.00 87 1001.0
20190218050209 44 213 13.0 23.0 0.00 0.00 0.00 86 1000.9
20190218045705 44 244 13.0 23.0 0.00 0.00 0.00 86 1000.8
20190218045206 44 232 12.0 19.0 0.00 0.00 0.00 86 1000.9
20190218044706 44 253 12.0 19.0 0.00 0.00 0.00 85 1000.8
20190218044206 44 238 12.0 20.0 0.00 0.00 0.00 85 1000.7
20190218043706 44 209 12.0 20.0 0.00 0.00 0.00 85 1000.9
20190218043211 44 232 12.0 20.0 0.00 0.00 0.00 86 1000.9
20190218042706 44 232 10.0 17.0 0.00 0.00 0.00 87 1000.9
20190218042208 44 241 9.0 17.0 0.00 0.00 0.00 87 1000.9
20190218041712 44 234 10.0 19.0 0.00 0.00 0.00 86 1000.8
20190218041205 44 222 10.0 19.0 0.00 0.00 0.00 86 1000.7
20190218040705 44 210 10.0 19.0 0.00 0.00 0.00 87 1000.8
20190218040207 44 238 9.0 17.0 0.00 0.00 0.00 86 1000.9
20190218035704 44 234 9.0 17.0 0.00 0.00 0.00 86 1000.9
20190218035207 44 219 9.0 19.0 0.00 0.00 0.00 86 1000.9
20190218034706 44 208 9.0 19.0 0.00 0.00 0.00 86 1000.9
20190218034205 44 210 10.0 20.0 0.00 0.00 0.00 86 1000.9
20190218033706 44 226 11.0 20.0 0.00 0.00 0.00 86 1000.9
20190218033208 44 186 11.0 19.0 0.00 0.00 0.00 85 1000.8
20190218032706 44 219 10.0 19.0 0.00 0.00 0.00 85 1000.9
20190218032207 44 225 9.0 19.0 0.00 0.00 0.00 85 1000.9
20190218031705 45 202 9.0 20.0 0.00 0.00 0.00 85 1000.9
20190218031205 45 211 9.0 20.0 0.00 0.00 0.00 85 1001.0
20190218030705 45 175 9.0 20.0 0.00 0.00 0.00 85 1001.0
20190218030210 45 220 9.0 17.0 0.00 0.00 0.00 85 1001.0
20190218025706 45 200 9.0 19.0 0.00 0.00 0.00 85 1001.1
20190218025208 45 229 10.0 19.0 0.00 0.00 0.00 85 1001.2
20190218024706 45 205 10.0 23.0 0.00 0.00 0.00 85 1001.2
20190218024205 45 214 12.0 23.0 0.00 0.00 0.00 85 1001.3
20190218023705 45 215 11.0 23.0 0.00 0.00 0.00 85 1001.4
20190218023206 45 263 11.0 23.0 0.00 0.00 0.00 85 1001.3
20190218022705 45 227 11.0 17.0 0.00 0.00 0.00 85 1001.3
20190218022206 45 215 10.0 17.0 0.00 0.00 0.00 85 1001.3
20190218021705 45 192 9.0 22.0 0.00 0.00 0.00 85 1001.3
20190218021205 45 196 10.0 22.0 0.00 0.00 0.00 85 1001.4
20190218020707 45 213 9.0 22.0 0.00 0.00 0.00 84 1001.4
20190218020206 46 198 9.0 23.0 0.00 0.00 0.00 83 1001.4
20190218015707 46 197 11.0 23.0 0.00 0.00 0.00 82 1001.4
20190218015209 46 206 11.0 23.0 0.00 0.00 0.00 82 1001.5
20190218014706 45 213 10.0 21.0 0.00 0.00 0.00 82 1001.4
20190218014205 45 219 9.0 16.0 0.00 0.00 0.00 83 1001.3
20190218013706 45 190 8.0 19.0 0.00 0.00 0.00 83 1001.3
20190218013206 45 202 9.0 19.0 0.00 0.00 0.00 83 1001.4
20190218012706 45 225 10.0 19.0 0.00 0.00 0.00 84 1001.5
20190218012208 45 215 9.0 19.0 0.00 0.00 0.00 84 1001.5
20190218011706 45 226 8.0 19.0 0.00 0.00 0.00 84 1001.6
20190218011206 45 205 9.0 19.0 0.00 0.00 0.00 85 1001.7
20190218010706 45 198 10.0 17.0 0.00 0.00 0.00 85 1001.7
20190218010205 45 211 10.0 17.0 0.00 0.00 0.00 85 1001.8
20190218005711 45 209 9.0 16.0 0.00 0.00 0.00 85 1001.7
20190218005206 45 200 8.0 16.0 0.00 0.00 0.00 85 1001.8
20190218004706 45 242 9.0 16.0 0.00 0.00 0.00 85 1001.9
20190218004205 45 227 8.0 20.0 0.00 0.00 0.00 85 1001.9
20190218003706 45 172 7.0 20.0 0.00 0.00 0.00 84 1001.9
20190218003208 45 211 8.0 20.0 0.00 0.00 0.00 84 1001.9
20190218002706 45 200 9.0 19.0 0.00 0.00 0.00 84 1001.8
20190218002208 45 215 9.0 19.0 0.00 0.00 0.00 84 1001.8
20190218001706 45 219 9.0 19.0 0.00 0.00 0.00 84 1001.8
20190218001206 45 217 9.0 21.0 0.00 0.00 0.00 84 1001.9
20190218000705 45 231 10.0 21.0 0.00 0.00 0.00 84 1001.8
20190218000207 46 225 11.0 20.0 0.00 0.00 0.00 84 1001.8
20190217235706 46 207 10.0 20.0 0.00 0.00 0.00 84 1001.9
20190217235206 46 256 10.0 20.0 0.00 0.00 0.00 84 1001.9
20190217234707 46 207 9.0 20.0 0.00 0.00 0.00 83 1001.8
20190217234206 46 232 9.0 21.0 0.00 0.00 0.00 83 1001.8
20190217233706 47 202 11.0 21.0 0.00 0.00 0.00 83 1001.8
20190217233205 47 194 12.0 22.0 0.00 0.00 0.00 83 1001.8
20190217232707 47 215 12.0 22.0 0.00 0.00 0.00 83 1001.9
20190217232206 47 166 10.0 22.0 0.00 0.00 0.00 83 1001.8
20190217231706 47 202 10.0 19.0 0.00 0.00 0.00 84 1001.9
20190217231205 46 222 11.0 20.0 0.00 0.00 0.00 84 1001.9
20190217230707 46 192 9.0 20.0 0.00 0.00 0.00 84 1001.9
20190217230206 46 217 9.0 20.0 0.00 0.00 0.00 84 1001.9
20190217225706 46 215 9.0 18.0 0.00 0.00 0.00 85 1002.0
20190217225211 46 206 9.0 17.0 0.00 0.00 0.00 85 1001.9
20190217224705 46 192 9.0 18.0 0.00 0.00 0.00 85 1001.8
20190217224206 46 200 10.0 18.0 0.00 0.00 0.00 85 1001.9
20190217223706 46 159 10.0 19.0 0.00 0.00 0.00 85 1001.9
20190217223205 46 225 10.0 20.0 0.00 0.00 0.00 85 1001.9
20190217222714 46 192 9.0 22.0 0.00 0.00 0.00 85 1002.1
20190217222206 46 226 10.0 22.0 0.00 0.00 0.00 84 1002.0
20190217221705 46 188 10.0 25.0 0.00 0.00 0.00 84 1002.0
20190217221206 47 225 11.0 25.0 0.00 0.00 0.00 83 1001.9
20190217220707 47 219 11.0 25.0 0.00 0.00 0.00 83 1002.0
20190217220205 47 198 10.0 19.0 0.00 0.00 0.00 83 1001.9
20190217215706 47 224 11.0 23.0 0.00 0.00 0.00 83 1002.0
20190217215207 47 192 12.0 23.0 0.00 0.00 0.00 83 1002.0
20190217214706 47 227 10.0 23.0 0.00 0.00 0.00 83 1002.0
20190217214214 47 180 10.0 26.0 0.00 0.00 0.00 83 1002.0
20190217213707 47 188 11.0 26.0 0.00 0.00 0.00 83 1002.0
20190217213206 47 197 11.0 26.0 0.00 0.00 0.00 83 1002.0
20190217212706 47 186 9.0 19.0 0.00 0.00 0.00 82 1002.1
20190217212206 47 207 9.0 19.0 0.00 0.00 0.00 82 1002.1
20190217211724 47 180 9.0 23.0 0.00 0.00 0.00 82 1002.1
20190217211209 47 211 11.0 23.0 0.00 0.00 0.00 82 1002.2
20190217210714 47 207 12.0 20.0 0.00 0.00 0.00 81 1002.2
20190217210206 47 208 10.0 20.0 0.00 0.00 0.00 81 1002.3
20190217205707 47 187 8.0 19.0 0.00 0.00 0.00 81 1002.4
20190217205207 47 215 8.0 19.0 0.00 0.00 0.00 80 1002.4
20190217204707 47 177 8.0 19.0 0.00 0.00 0.00 80 1002.5
20190217204206 47 200 7.0 17.0 0.00 0.00 0.00 79 1002.5
20190217203706 47 188 8.0 16.0 0.00 0.00 0.00 79 1002.6
20190217203210 47 190 9.0 16.0 0.00 0.00 0.00 79 1002.6
20190217202706 47 192 7.0 18.0 0.00 0.00 0.00 79 1002.7
20190217202208 47 188 7.0 18.0 0.00 0.00 0.00 79 1002.7
20190217201714 47 190 9.0 21.0 0.00 0.00 0.00 79 1002.7
20190217201207 47 204 9.0 21.0 0.00 0.00 0.00 79 1002.7
20190217200706 47 197 10.0 21.0 0.00 0.00 0.00 79 1002.9
20190217200206 47 190 11.0 29.0 0.00 0.00 0.00 79 1003.0
20190217195706 47 205 12.0 29.0 0.00 0.00 0.00 79 1002.9
20190217195212 46 196 12.0 24.0 0.00 0.00 0.00 79 1002.9
20190217194718 46 224 11.0 24.0 0.00 0.00 0.00 79 1002.9
20190217194215 46 224 12.0 24.0 0.00 0.00 0.00 79 1002.8
20190217193706 46 200 12.0 22.0 0.00 0.00 0.00 79 1002.8
20190217193205 46 210 11.0 24.0 0.00 0.00 0.00 79 1002.9
20190217192707 46 187 12.0 28.0 0.00 0.00 0.00 79 1002.7
20190217192207 46 160 13.0 28.0 0.00 0.00 0.00 79 1002.7
20190217191708 46 227 14.0 28.0 0.00 0.00 0.00 78 1002.5
20190217191209 46 198 14.0 25.0 0.00 0.00 0.00 78 1002.5
20190217190706 46 203 14.0 25.0 0.00 0.00 0.00 78 1002.4
20190217190205 46 188 12.0 26.0 0.00 0.00 0.00 78 1002.4
20190217185706 46 207 11.0 26.0 0.00 0.00 0.00 78 1002.4
20190217185206 46 216 10.0 26.0 0.00 0.00 0.00 78 1002.5
20190217184706 46 192 9.0 15.0 0.00 0.00 0.00 78 1002.6
20190217184206 46 238 8.0 17.0 0.00 0.00 0.00 78 1002.6
20190217183707 46 221 8.0 22.0 0.00 0.00 0.00 78 1002.6
20190217183205 46 209 10.0 22.0 0.00 0.00 0.00 77 1002.6
20190217182706 46 223 12.0 22.0 0.00 0.00 0.00 77 1002.6
20190217182208 46 183 11.0 22.0 0.00 0.00 0.00 78 1002.5
20190217181706 46 216 9.0 22.0 0.00 0.00 0.00 78 1002.5
20190217181206 46 201 9.0 21.0 0.00 0.00 0.00 78 1002.6
20190217180716 47 213 10.0 21.0 0.00 0.00 0.00 78 1002.5
20190217180206 47 202 9.0 20.0 0.00 0.00 0.00 78 1002.6
20190217175706 47 87 9.0 22.0 0.00 0.00 0.00 78 1002.6
20190217175210 47 217 10.0 22.0 0.00 0.00 0.00 78 1002.5
20190217174710 47 219 11.0 22.0 0.00 0.00 0.00 77 1002.4
20190217174205 47 245 11.0 21.0 0.00 0.00 0.00 77 1002.3
20190217173706 47 194 10.0 21.0 0.00 0.00 0.00 77 1002.3
20190217173207 47 192 10.0 21.0 0.00 0.00 0.00 76 1002.2
20190217172708 47 219 10.0 24.0 0.00 0.00 0.00 76 1002.1
20190217172207 48 215 11.0 24.0 0.00 0.00 0.00 75 1002.0
20190217171705 48 189 12.0 24.0 0.00 0.00 0.00 75 1002.0
20190217171208 48 207 13.0 24.0 0.00 0.00 0.00 74 1001.9
20190217170706 48 197 13.0 24.0 0.00 0.00 0.00 74 1001.8
20190217170206 49 202 11.0 22.0 0.00 0.00 0.00 74 1001.9
20190217165706 49 216 11.0 22.0 0.00 0.00 0.00 74 1001.8
20190217165207 49 215 10.0 24.0 0.00 0.00 0.00 73 1001.8
20190217164705 49 190 11.0 24.0 0.00 0.00 0.00 73 1001.9
20190217164210 49 188 11.0 24.0 0.00 0.00 0.00 72 1001.8
20190217163709 49 208 9.0 20.0 0.00 0.00 0.00 72 1001.7
20190217163207 49 221 10.0 22.0 0.00 0.00 0.00 72 1001.8
20190217162707 49 203 11.0 23.0 0.00 0.00 0.00 71 1001.7
20190217162207 50 202 11.0 23.0 0.00 0.00 0.00 71 1001.7
20190217161706 50 213 12.0 23.0 0.00 0.00 0.00 71 1001.6
20190217161209 50 217 12.0 23.0 0.00 0.00 0.00 70 1001.7
20190217160706 50 209 10.0 23.0 0.00 0.00 0.00 71 1001.6
20190217160211 50 194 10.0 21.0 0.00 0.00 0.00 71 1001.7
20190217155705 50 207 11.0 21.0 0.00 0.00 0.00 71 1001.6
20190217155207 50 208 12.0 22.0 0.00 0.00 0.00 71 1001.6
20190217154708 50 226 11.0 22.0 0.00 0.00 0.00 70 1001.6
20190217154206 50 218 11.0 22.0 0.00 0.00 0.00 71 1001.7
20190217153706 51 224 12.0 22.0 0.00 0.00 0.00 71 1001.7
20190217153206 51 206 12.0 23.0 0.00 0.00 0.00 70 1001.6
20190217152710 51 217 12.0 25.0 0.00 0.00 0.00 71 1001.6
20190217152216 51 227 12.0 25.0 0.00 0.00 0.00 72 1001.6
20190217151705 50 204 12.0 25.0 0.00 0.00 0.00 73 1001.5
20190217151207 50 206 12.0 23.0 0.00 0.00 0.00 74 1001.6
20190217150705 50 213 13.0 24.0 0.00 0.00 0.00 74 1001.6
20190217150206 50 207 12.0 25.0 0.00 0.00 0.00 74 1001.5
20190217145713 51 215 13.0 25.0 0.00 0.00 0.00 74 1001.5
20190217145206 51 219 14.0 28.0 0.00 0.00 0.00 74 1001.5
20190217144709 51 217 14.0 28.0 0.00 0.00 0.00 75 1001.4
20190217144206 51 221 13.0 26.0 0.00 0.00 0.00 76 1001.3
20190217143707 51 213 13.0 28.0 0.00 0.00 0.00 77 1001.4
20190217143207 51 217 14.0 28.0 0.00 0.00 0.00 77 1001.1
20190217142706 51 276 15.0 26.0 0.00 0.00 0.00 77 1001.3
20190217142207 51 157 15.0 26.0 0.00 0.00 0.00 77 1001.1
20190217141709 51 238 15.0 25.0 0.00 0.00 0.00 78 1001.0
20190217141207 51 198 13.0 30.0 0.00 0.00 0.00 79 1001.1
20190217140705 51 188 13.0 30.0 0.00 0.00 0.00 80 1001.0
20190217140206 50 209 13.0 30.0 0.00 0.00 0.00 80 1001.1
20190217135706 51 196 12.0 26.0 0.00 0.00 0.00 80 1001.2
20190217135207 51 207 13.0 33.0 0.00 0.00 0.00 80 1001.3
20190217134708 51 216 14.0 33.0 0.00 0.00 0.00 80 1001.3
20190217134207 50 227 14.0 33.0 0.00 0.00 0.00 81 1001.4
20190217133706 50 189 14.0 25.0 0.00 0.00 0.00 81 1001.4
20190217133206 50 233 13.0 22.0 0.00 0.00 0.00 82 1001.5
20190217132707 50 215 10.0 23.0 0.00 0.00 0.00 82 1001.7
20190217132215 50 180 11.0 23.0 0.00 0.00 0.00 83 1001.7
20190217131706 50 188 12.0 23.0 0.00 0.00 0.00 83 1001.7
20190217131207 50 211 12.0 23.0 0.00 0.00 0.00 83 1001.8
20190217130707 49 211 10.0 23.0 0.00 0.00 0.00 83 1001.9
20190217130206 49 194 9.0 23.0 0.00 0.00 0.00 84 1001.8
20190217125710 49 189 10.0 23.0 0.00 0.00 0.00 84 1001.8
20190217125206 49 203 10.0 22.0 0.00 0.00 0.00 84 1001.9
20190217124707 49 199 9.0 21.0 0.00 0.00 0.00 84 1002.0
20190217124207 49 213 9.0 21.0 0.00 0.00 0.00 83 1002.0
20190217123707 49 192 9.0 21.0 0.00 0.00 0.00 83 1002.1
20190217123215 49 209 10.0 21.0 0.00 0.00 0.00 83 1002.2
20190217122706 49 204 11.0 24.0 0.00 0.00 0.00 83 1002.3
20190217122208 49 180 10.0 24.0 0.00 0.00 0.00 82 1002.3
20190217121707 49 215 12.0 27.0 0.00 0.00 0.00 82 1002.3
20190217121207 50 200 14.0 30.0 0.00 0.00 0.00 82 1002.4
20190217120705 50 186 15.0 30.0 0.00 0.00 0.00 81 1002.4
20190217120205 50 210 14.0 30.0 0.00 0.00 0.00 80 1002.3
20190217115706 51 201 13.0 26.0 0.00 0.00 0.00 79 1002.3
20190217115207 51 229 13.0 29.0 0.00 0.00 0.00 78 1002.2
20190217114709 51 199 15.0 29.0 0.00 0.00 0.00 77 1002.2
20190217114205 51 211 15.0 25.0 0.00 0.00 0.00 77 1002.3
20190217113711 51 210 13.0 30.0 0.00 0.00 0.00 77 1002.2
20190217113210 51 186 13.0 31.0 0.00 0.00 0.00 76 1002.1
20190217112706 51 190 14.0 38.0 0.00 0.00 0.00 76 1002.2
20190217112207 51 200 14.0 38.0 0.00 0.00 0.00 75 1002.3
20190217111705 51 190 15.0 38.0 0.00 0.00 0.00 75 1002.2
20190217111206 51 165 15.0 30.0 0.00 0.00 0.00 74 1002.2
20190217110706 51 207 13.0 30.0 0.00 0.00 0.00 74 1002.3
20190217110206 51 171 12.0 23.0 0.00 0.00 0.00 74 1002.3
20190217105705 51 205 11.0 23.0 0.00 0.00 0.00 74 1002.2
20190217105207 51 217 10.0 25.0 0.00 0.00 0.00 73 1002.1
20190217104705 51 209 12.0 28.0 0.00 0.00 0.00 73 1002.2
20190217104211 51 219 13.0 28.0 0.00 0.00 0.00 73 1002.3
20190217103706 51 199 13.0 28.0 0.00 0.00 0.00 72 1002.5
20190217103208 51 186 12.0 25.0 0.00 0.00 0.00 72 1002.5
20190217102705 51 178 12.0 29.0 0.00 0.00 0.00 72 1002.6
20190217102213 51 175 14.0 29.0 0.00 0.00 0.00 72 1002.7
20190217101707 51 168 15.0 29.0 0.00 0.00 0.00 72 1002.9
20190217101207 51 232 14.0 25.0 0.00 0.00 0.00 72 1002.8
20190217100708 51 172 12.0 24.0 0.00 0.00 0.00 72 1002.9
20190217100205 51 174 10.0 20.0 0.00 0.00 0.00 72 1003.0
20190217095706 51 182 8.0 19.0 0.00 0.00 0.00 72 1003.1
20190217095206 51 217 8.0 15.0 0.00 0.00 0.00 72 1003.1
20190217094707 51 196 8.0 16.0 0.00 0.00 0.00 72 1003.3
20190217094206 51 229 8.0 16.0 0.00 0.00 0.00 71 1003.3
20190217093707 51 236 9.0 19.0 0.00 0.00 0.00 71 1003.3
20190217093231 51 207 9.0 19.0 0.00 0.00 0.00 71 1003.4
20190217092705 51 209 8.0 20.0 0.00 0.00 0.00 71 1003.2
20190217092206 51 200 9.0 20.0 0.00 0.00 0.00 71 1003.3
20190217091706 51 194 9.0 20.0 0.00 0.00 0.00 71 1003.1
20190217091207 51 196 9.0 16.0 0.00 0.00 0.00 71 1003.3
20190217090706 51 184 8.0 22.0 0.00 0.00 0.00 70 1003.5
20190217090207 51 209 8.0 22.0 0.00 0.00 0.00 71 1003.5
20190217085711 50 232 8.0 22.0 0.00 0.00 0.00 70 1003.5
20190217085206 50 209 7.0 13.0 0.00 0.01 0.00 71 1003.6
20190217084712 50 212 7.0 14.0 0.00 0.01 0.00 71 1003.5
20190217084205 50 226 7.0 15.0 0.00 0.01 0.00 71 1003.5
20190217083705 50 219 7.0 15.0 0.00 0.01 0.00 72 1003.6
20190217083207 50 225 8.0 15.0 0.00 0.01 0.00 71 1003.7
20190217082707 50 205 8.0 15.0 0.00 0.01 0.00 71 1003.7
20190217082205 50 228 8.0 18.0 0.00 0.01 0.00 71 1003.6
20190217081706 50 211 7.0 18.0 0.00 0.01 0.00 72 1003.7
20190217081206 50 196 8.0 15.0 0.00 0.01 0.00 72 1003.8
20190217080708 50 231 8.0 15.0 0.00 0.01 0.00 72 1003.8
20190217080206 50 213 8.0 15.0 0.00 0.01 0.00 72 1003.8
20190217075713 49 230 8.0 15.0 0.00 0.01 0.00 72 1003.8
20190217075207 50 204 7.0 17.0 0.00 0.01 0.00 73 1003.9
20190217074706 49 213 7.0 17.0 0.00 0.01 0.00 72 1004.0
20190217074214 50 234 9.0 19.0 0.00 0.01 0.00 73 1004.1
20190217073705 50 205 10.0 19.0 0.00 0.01 0.00 72 1004.1
20190217073209 50 218 10.0 19.0 0.00 0.01 0.00 73 1004.0
20190217072706 50 193 10.0 19.0 0.00 0.01 0.00 73 1004.0
20190217072207 50 202 10.0 20.0 0.00 0.01 0.00 73 1004.1
20190217071707 49 194 9.0 20.0 0.00 0.01 0.00 74 1004.0
20190217071206 49 199 10.0 20.0 0.00 0.01 0.00 74 1004.1
20190217070706 49 180 11.0 20.0 0.00 0.01 0.00 75 1004.2
20190217070217 49 183 10.0 20.0 0.00 0.01 0.00 76 1004.1
20190217065708 49 194 9.0 20.0 0.00 0.01 0.00 77 1004.3
20190217065210 49 202 8.0 18.0 0.00 0.01 0.00 78 1004.3
20190217064705 48 202 8.0 18.0 0.00 0.01 0.00 78 1004.3
20190217064207 48 205 8.0 18.0 0.00 0.01 0.00 79 1004.4
20190217063707 48 236 9.0 18.0 0.00 0.01 0.00 79 1004.4